EN

Hourly Weather Bolshoe Ogryzkovo

Today, 20 October, Tuesday

Time Temperature Precipitation Wind Pressure Humidity
00:00 0°C° 0.5 mm 5 mps 742 mmHg 87%
01:00 0°C° 0.5 mm 5 mps 742 mmHg 88%
02:00 -1°C° 0 mm 6 mps 742 mmHg 90%
03:00 0°C° 0 mm 5 mps 743 mmHg 87%
04:00 0°C° 0 mm 5 mps 743 mmHg 85%
05:00 0°C° 0 mm 4 mps 743 mmHg 82%
06:00 0°C° 0.1 mm 4 mps 743 mmHg 84%
07:00 0°C° 0.1 mm 4 mps 743 mmHg 86%
08:00 +1°C° 0 mm 3 mps 744 mmHg 90%
09:00 +1°C° 0.1 mm 3 mps 744 mmHg 90%
10:00 +1°C° 0.1 mm 3 mps 744 mmHg 90%
11:00 0°C° 0.1 mm 4 mps 745 mmHg 90%
12:00 +1°C° 0.1 mm 4 mps 745 mmHg 86%
13:00 +1°C° 0.1 mm 4 mps 746 mmHg 81%
14:00 +1°C° 0.1 mm 4 mps 747 mmHg 77%
15:00 +1°C° 0 mm 4 mps 747 mmHg 80%
16:00 0°C° 0 mm 4 mps 748 mmHg 82%
17:00 0°C° 0 mm 4 mps 748 mmHg 85%
18:00 0°C° 0 mm 3 mps 749 mmHg 85%
19:00 0°C° 0 mm 3 mps 749 mmHg 84%
20:00 0°C° 0 mm 3 mps 750 mmHg 83%
21:00 0°C° 0 mm 3 mps 750 mmHg 85%
22:00 0°C° 0 mm 3 mps 751 mmHg 87%
23:00 -1°C° 0 mm 3 mps 751 mmHg 89%

Tomorrow, 21 October, Wednesday

Time Temperature Precipitation Wind Pressure Humidity
00:00 -1°C° 0 mm 3 mps 751 mmHg 90%
01:00 -1°C° 0 mm 3 mps 752 mmHg 91%
02:00 -2°C° 0 mm 3 mps 752 mmHg 93%
03:00 -2°C° 0 mm 3 mps 752 mmHg 92%
04:00 -2°C° 0 mm 3 mps 752 mmHg 92%
05:00 -2°C° 0 mm 3 mps 752 mmHg 91%
06:00 -2°C° 0 mm 3 mps 752 mmHg 89%
07:00 -1°C° 0 mm 3 mps 752 mmHg 87%
08:00 -1°C° 0 mm 3 mps 752 mmHg 84%
09:00 +1°C° 0 mm 2 mps 752 mmHg 81%
10:00 +2°C° 0 mm 2 mps 752 mmHg 78%
11:00 +3°C° 0 mm 2 mps 752 mmHg 75%
12:00 +3°C° 0 mm 2 mps 752 mmHg 74%
13:00 +3°C° 0 mm 2 mps 752 mmHg 73%
14:00 +3°C° 0 mm 2 mps 752 mmHg 72%
15:00 +3°C° 0 mm 1 mps 752 mmHg 78%
16:00 +3°C° 0 mm 1 mps 752 mmHg 83%
17:00 +2°C° 0 mm 1 mps 751 mmHg 89%
18:00 +2°C° 0 mm 1 mps 752 mmHg 91%
19:00 +2°C° 0 mm 1 mps 752 mmHg 93%
20:00 +1°C° 0 mm 1 mps 752 mmHg 96%
21:00 +2°C° 0 mm 1 mps 752 mmHg 96%
22:00 +2°C° 0 mm 1 mps 751 mmHg 96%
23:00 +2°C° 0 mm 1 mps 751 mmHg 96%

Day after tomorrow, 22 October, Thursday

Time Temperature Precipitation Wind Pressure Humidity
00:00 +2°C° 0 mm 1 mps 751 mmHg 96%
01:00 +2°C° 0 mm 1 mps 751 mmHg 96%
02:00 +3°C° 0 mm 1 mps 751 mmHg 95%
03:00 +3°C° 0 mm 1 mps 751 mmHg 95%
04:00 +3°C° 0 mm 1 mps 751 mmHg 95%
05:00 +3°C° 0 mm 1 mps 751 mmHg 95%
06:00 +2°C° 0 mm 2 mps 751 mmHg 95%
07:00 +2°C° 0 mm 2 mps 750 mmHg 95%
08:00 +3°C° 0 mm 2 mps 750 mmHg 95%
09:00 +3°C° 0 mm 2 mps 750 mmHg 93%
10:00 +3°C° 0 mm 3 mps 750 mmHg 91%
11:00 +3°C° 0 mm 3 mps 750 mmHg 89%
12:00 +4°C° 0 mm 3 mps 749 mmHg 89%
13:00 +4°C° 0 mm 3 mps 749 mmHg 89%
14:00 +4°C° 0 mm 3 mps 749 mmHg 89%
15:00 +4°C° 0 mm 3 mps 748 mmHg 90%
16:00 +4°C° 0 mm 3 mps 748 mmHg 91%
17:00 +4°C° 0 mm 3 mps 747 mmHg 92%
18:00 +4°C° 0.3 mm 3 mps 747 mmHg 93%
19:00 +4°C° 0.3 mm 4 mps 746 mmHg 93%
20:00 +4°C° 0.3 mm 4 mps 746 mmHg 93%
21:00 +4°C° 0.5 mm 4 mps 745 mmHg 93%
22:00 +4°C° 0.5 mm 4 mps 745 mmHg 93%
23:00 +5°C° 0.5 mm 4 mps 744 mmHg 94%

23 October, Friday

Time Temperature Precipitation Wind Pressure Humidity
00:00 +5°C° 0.7 mm 4 mps 744 mmHg 95%
01:00 +5°C° 0.7 mm 4 mps 743 mmHg 96%
02:00 +7°C° 0.7 mm 3 mps 743 mmHg 97%
03:00 +8°C° 0.1 mm 3 mps 743 mmHg 96%
04:00 +7°C° 0.1 mm 4 mps 743 mmHg 95%
05:00 +8°C° 0.1 mm 4 mps 743 mmHg 94%
06:00 +10°C° 0.1 mm 4 mps 743 mmHg 93%
07:00 +10°C° 0.1 mm 4 mps 742 mmHg 92%
08:00 +10°C° 0.1 mm 4 mps 742 mmHg 91%
09:00 +10°C° 0 mm 4 mps 742 mmHg 90%
10:00 +11°C° 0 mm 4 mps 742 mmHg 89%
11:00 +11°C° 0 mm 4 mps 742 mmHg 87%
12:00 +11°C° 0.9 mm 4 mps 742 mmHg 89%
13:00 +11°C° 0.9 mm 4 mps 741 mmHg 91%
14:00 +11°C° 0.9 mm 4 mps 740 mmHg 92%
15:00 +11°C° 2 mm 4 mps 739 mmHg 93%
16:00 +11°C° 2 mm 4 mps 739 mmHg 93%
17:00 +10°C° 2 mm 5 mps 738 mmHg 94%
18:00 +11°C° 1.2 mm 4 mps 737 mmHg 93%
19:00 +11°C° 1.2 mm 4 mps 737 mmHg 92%
20:00 +11°C° 1.2 mm 4 mps 737 mmHg 91%
21:00 +11°C° 0.8 mm 4 mps 737 mmHg 90%
22:00 +11°C° 0.8 mm 4 mps 737 mmHg 89%
23:00 +10°C° 0.8 mm 5 mps 737 mmHg 88%

24 October, Saturday

Time Temperature Precipitation Wind Pressure Humidity
00:00 +9°C° 0.3 mm 5 mps 737 mmHg 88%
01:00 +10°C° 0.3 mm 4 mps 738 mmHg 88%
02:00 +10°C° 0.3 mm 4 mps 738 mmHg 87%
03:00 +8°C° 0 mm 4 mps 739 mmHg 87%
04:00 +8°C° 0 mm 4 mps 739 mmHg 86%
05:00 +8°C° 0 mm 4 mps 739 mmHg 86%
06:00 +8°C° 0 mm 4 mps 740 mmHg 86%
07:00 +8°C° 0 mm 4 mps 740 mmHg 85%
08:00 +8°C° 0 mm 4 mps 741 mmHg 85%
09:00 +8°C° 0 mm 4 mps 741 mmHg 82%
10:00 +8°C° 0 mm 4 mps 742 mmHg 78%
11:00 +8°C° 0 mm 4 mps 743 mmHg 75%
12:00 +8°C° 0 mm 4 mps 743 mmHg 75%
13:00 +9°C° 0 mm 3 mps 743 mmHg 74%
14:00 +9°C° 0 mm 3 mps 743 mmHg 74%
15:00 +8°C° 0 mm 2 mps 744 mmHg 78%
16:00 +7°C° 0 mm 2 mps 744 mmHg 81%
17:00 +7°C° 0 mm 1 mps 744 mmHg 85%
18:00 +7°C° 0 mm 1 mps 744 mmHg 86%
19:00 +6°C° 0 mm 1 mps 744 mmHg 87%
20:00 +5°C° 0 mm 1 mps 744 mmHg 88%
21:00 +4°C° 0 mm 0 mps 744 mmHg 88%
22:00 +4°C° 0 mm 0 mps 744 mmHg 87%
23:00 +3°C° 0 mm 0 mps 744 mmHg 87%

25 October, Sunday

Time Temperature Precipitation Wind Pressure Humidity
00:00 +3°C° 0 mm 0 mps 744 mmHg 87%
01:00 +3°C° 0 mm 0 mps 744 mmHg 88%
02:00 +4°C° 0 mm 1 mps 744 mmHg 88%
03:00 +4°C° 0 mm 1 mps 744 mmHg 88%
04:00 +4°C° 0 mm 1 mps 744 mmHg 88%
05:00 +4°C° 0 mm 1 mps 744 mmHg 87%
06:00 +4°C° 0 mm 1 mps 744 mmHg 87%
07:00 +4°C° 0 mm 1 mps 745 mmHg 86%
08:00 +4°C° 0 mm 1 mps 745 mmHg 85%
09:00 +4°C° 0 mm 1 mps 745 mmHg 84%
10:00 +5°C° 0 mm 1 mps 745 mmHg 83%
11:00 +4°C° 0 mm 2 mps 745 mmHg 81%
12:00 +4°C° 0 mm 2 mps 746 mmHg 79%
13:00 +4°C° 0 mm 2 mps 746 mmHg 78%
14:00 +4°C° 0 mm 2 mps 746 mmHg 76%
15:00 +4°C° 0 mm 2 mps 746 mmHg 78%
16:00 +3°C° 0 mm 2 mps 747 mmHg 81%
17:00 +3°C° 0 mm 2 mps 747 mmHg 83%
18:00 +2°C° 0 mm 2 mps 747 mmHg 83%
19:00 +2°C° 0 mm 2 mps 747 mmHg 84%
20:00 +2°C° 0 mm 2 mps 748 mmHg 84%
21:00 +1°C° 0 mm 2 mps 748 mmHg 85%
22:00 0°C° 0 mm 3 mps 748 mmHg 85%
23:00 0°C° 0 mm 3 mps 748 mmHg 86%

26 October, Monday

Time Temperature Precipitation Wind Pressure Humidity
00:00 -1°C° 0 mm 3 mps 749 mmHg 88%
01:00 -1°C° 0 mm 3 mps 749 mmHg 91%
02:00 -2°C° 0 mm 2 mps 749 mmHg 93%
03:00 -2°C° 0 mm 3 mps 749 mmHg 93%
04:00 -1°C° 0 mm 3 mps 750 mmHg 94%
05:00 -1°C° 0 mm 3 mps 750 mmHg 95%
06:00 -1°C° 0 mm 3 mps 750 mmHg 93%
07:00 -1°C° 0 mm 3 mps 750 mmHg 91%
08:00 0°C° 0 mm 3 mps 751 mmHg 89%
09:00 +1°C° 0 mm 3 mps 751 mmHg 84%
10:00 +2°C° 0 mm 3 mps 751 mmHg 78%
11:00 +3°C° 0 mm 3 mps 752 mmHg 72%
12:00 +3°C° 0 mm 3 mps 752 mmHg 73%
13:00 +3°C° 0 mm 4 mps 752 mmHg 73%
14:00 +4°C° 0 mm 4 mps 752 mmHg 74%
15:00 +3°C° 0 mm 3 mps 752 mmHg 74%
16:00 +3°C° 0 mm 3 mps 752 mmHg 75%
17:00 +2°C° 0 mm 3 mps 752 mmHg 76%
18:00 +2°C° 0 mm 3 mps 752 mmHg 79%
19:00 +1°C° 0 mm 3 mps 752 mmHg 82%
20:00 +2°C° 0 mm 2 mps 752 mmHg 85%
21:00 +1°C° 0 mm 3 mps 752 mmHg 88%
22:00 +1°C° 0 mm 3 mps 752 mmHg 90%
23:00 +1°C° 0 mm 3 mps 752 mmHg 93%
Show more